Location: Berg
(47.2344°N, 9.5296°E)
Time: 03:17:33
(UTC+00:00)

Meteor 1-27 - Visible Passes

Search period start: 13 May 2021 00:00
Search period end: 23 May 2021 00:00
Orbit: 838 x 892 km, 81.2° (Epoch: 12 May)

Date Brightness Start Highest point End Pass type
(mag) Time Alt. Az. Time Alt. Az. Time Alt. Az.
13 May 7.7 02:36:49 10° NNE 02:39:08 12° NE 02:41:27 10° E visible
14 May 7.6 02:29:10 10° NNE 02:31:29 12° NE 02:33:47 10° E visible
15 May 7.6 02:21:30 10° NNE 02:23:49 12° NE 02:26:07 10° E visible
16 May 7.5 02:13:51 10° NNE 02:16:10 12° NE 02:18:28 10° E visible
17 May 7.5 02:06:11 10° NNE 02:08:30 12° NE 02:10:47 10° E visible
18 May 7.4 01:58:32 10° NNE 02:00:50 12° NE 02:03:08 10° E visible
19 May 7.4 01:50:52 10° NNE 01:53:11 12° NE 01:55:28 10° E visible
20 May 7.3 01:43:13 10° NNE 01:45:31 12° NE 01:47:48 10° E visible
21 May 7.3 01:35:34 10° NNE 01:37:52 12° NE 01:40:09 10° E visible
22 May 7.2 01:27:54 10° NNE 01:30:12 12° NE 01:32:28 10° E visible
